Miscellaneous Local Product
Issued by NWS North Platte, NE

Home | Current Version | Previous Version | Graphics & Text | Print | Product List | Glossary On
Versions: 1 2 3 4 5 6 7 8 9 10 11 12 13 14 15 16 17 18 19 20 21 22 23 24 25 26 27 28 29 30 31 32 33 34 35 36 37 38 39 40 41 42 43 44 45 46 47 48 49 50
000
AXUS43 KLBF 250910
MISLBF


WESTERN AND NORTH CENTRAL NEBRASKA HOURLY WEATHER ROUNDUP
NATIONAL WEATHER SERVICE NORTH PLATTE NE
400 AM CDT MON MAY 25 2015

***STATIONS NOT REPORTING VARIABLES SUCH AS SKY/WEATHER OR
PRESSURE ARE PROVIDED BY THE NEBRASKA DEPARTMENT OF
ROADS...RAWS...AND APRS NETWORKS...AND ARE NOT UNDER
NATIONAL WEATHER SERVICE QUALITY CONTROL***

...OBSERVATIONS IN AND NEAR THE EASTERN PANHANDLE OF NEBRASKA...

CITY           SKY/WX    TMP DP  RH WIND       PRES   REMARKS
PINE RIDGE     CLOUDY    55  52  89 N7        29.79F
CHADRON        CLOUDY    51  49  92 W6        29.81S
ALLIANCE       LGT RAIN  51  49  92 W6        29.77F
SIDNEY         LGT RAIN  49  48  97 NW6       29.80F
WHITECLAY        N/A     53  52  95 NW5         N/A
BIG SPRINGS      N/A     53  51  92 E3          N/A
$$

...OBSERVATIONS IN NORTH CENTRAL NEBRASKA...

CITY           SKY/WX    TMP DP  RH WIND       PRES   REMARKS
VALENTINE      CLOUDY    57  55  94 NE5       29.75F
THEDFORD       CLOUDY    53  52  95 CALM      29.75F
AINSWORTH      FOG       56  56 100 NE5       29.75F VSB 1/4
O`NEILL        FOG       55  55 100 CALM      29.75F VSB 1/4
ORD            CLOUDY    57  56  96 NW5       29.73F FOG
BROKEN BOW     PTCLDY    51  50  96 N7        29.71F
VALENTINE NWR    N/A     56  56  99 NE8         N/A
SPRINGVIEW       N/A     56  55  95 CALM        N/A
HALSEY           N/A     53  52  98 CALM        N/A
ROSE             N/A     54  54  99 NE5         N/A
NEWPORT          N/A     57  56  99 CALM        N/A
SARGENT          N/A     56  55  98 CALM        N/A
COMSTOCK         N/A     56  56  99 CALM        N/A
EWING            N/A     55  54  97 CALM        N/A
$$

...OBSERVATIONS IN SOUTHWEST NEBRASKA AND FAR NORTHEAST COLORADO...

CITY           SKY/WX    TMP DP  RH WIND       PRES   REMARKS
WRAY           FAIR     N/A N/A N/A CALM      29.80R
IMPERIAL       CLOUDY    52  49  89 SE5       29.79R
OGALLALA       CLOUDY    52  50  95 CALM      29.78S
NORTH PLATTE   CLOUDY    53  51  93 SW9       29.77F
MCCOOK         CLOUDY    54  52  93 W10       29.79S
LEXINGTON      CLOUDY    53  52  95 W6        29.76R
PAXTON           N/A     53  51  94 S5          N/A
GOTHENBURG       N/A     53  50  89 CALM        N/A
CALLAWAY         N/A     51  50  97 SW10        N/A
$$

...NORTH PLATTE AREA...

CITY           SKY/WX    TMP DP  RH WIND       PRES   REMARKS
AIRPORT        CLOUDY    53  51  93 SW9       29.77F
DOWNTOWN         N/A     53  51  93 SW5         N/A
$$

...SOME WEATHER OBSERVATIONS FROM AROUND THE REGION...

CITY           SKY/WX    TMP DP  RH WIND       PRES   REMARKS
DENVER         MOCLDY    45  40  82 SW6       29.87F
LARAMIE        CLOUDY    40  36  86 CALM      29.92S
CHEYENNE       LGT RAIN  44  41  89 N8        29.88F
SCOTTSBLUFF    CLOUDY    51  50  96 W7        29.82S
RAPID CITY     CLOUDY    51  50  96 N9        29.82F
PIERRE         CLOUDY    57  57 100 NE5       29.77S FOG
WINNER         FOG       59  57  93 NE5       29.76F VSB 1/4
SIOUX FALLS    CLOUDY    59  57  93 W3        29.74R
OMAHA          CLOUDY    64  61  90 S7        29.76S
GRAND ISLAND   MOCLDY    57  56  96 E6        29.74F
KANSAS CITY    CLOUDY    61  61 100 SE9       29.83F
WICHITA        MOCLDY    60  58  92 SE14      29.80F
HAYS           CLOUDY    55  48  76 SE16      29.75F
LIBERAL        PTCLDY    61  54  77 S8        29.78S
GOODLAND       MOCLDY    50  48  93 W8        29.80S
$$



USA.gov is the U.S. government's official web portal to all federal, state and local government web resources and services.